Location: Unspecified
(0.0000°N, 0.0000°E)
Time: 07:05:19
(UTC+00:00)

S-56A Canister/Altair - Pass Details

Date: 13 December 2018
Orbit: 633 x 2499 km, 38.9° (Epoch: 15 June)

Event Time Altitude Azimuth Distance (km) Brightness Sun altitude
Rises 23:29:31 0° 224° (SW) 3,125 - -66.0°
Reaches altitude 10° 23:31:37 10° 222° (SW) 2,322 - -66.2°
Maximum altitude 23:36:58 74° 137° (SE) 1,008 - -66.4°
Drops below altitude 10° 23:44:54 10° 53° (NE) 3,373 - -66.7°
Sets 23:48:30 0° 52° (NE) 4,658 - -66.8°
